Tracking 34138 objects as of 15-May-2026
HD Live streaming from Space Station
objects crossing your sky now

STARLINK-37061

Track STARLINK-37061 now!
10-day predictions
STARLINK-37061 is classified as:


NORAD ID: 68185
Int'l Code: 2026-050U
Perigee: 446.4 km
Apogee: 447.2 km
Inclination: 53.2 °
Period: 93.4 minutes
Semi major axis: 6817 km
RCS: Unknown
Launch date: March 14, 2026
Source: United States (US)
Launch site: AIR FORCE EASTERN TEST RANGE (AFETR)
Your satellite tracking list
Your tracking list is empty




NASA's NSSDC Master Catalog

Two Line Element Set (TLE):
1 68185U 26050U   26134.24291341  .00024464  00000-0  56946-3 0  9996
2 68185  53.1596 321.9809 0000617  64.8383 295.2687 15.42178543 10726
Source of the keplerian elements: AFSPC